TimePDT,TemperatureF,Dew PointF,Humidity,Sea Level PressureIn,VisibilityMPH,Wind Direction,Wind SpeedMPH,Gust SpeedMPH,PrecipitationIn,Events,Conditions,WindDirDegrees,DateUTC
1:00 AM,45.0,40.8,85,30.19,-9999.0,WNW,1.2,-,N/A,,Unknown,300,2012-10-25 08:00:00
2:00 AM,45.1,40.8,85,30.21,-9999.0,West,2.3,-,N/A,,Unknown,280,2012-10-25 09:00:00
4:00 AM,44.8,41.2,87,30.25,-9999.0,WSW,5.8,-,N/A,,Unknown,240,2012-10-25 11:00:00
5:00 AM,45,41,82,30.26,,SW,6.9,,,,,230,2012-10-25 12:00:00
7:00 AM,45.1,41.4,87,30.30,-9999.0,SW,5.8,-,N/A,,Unknown,230,2012-10-25 14:00:00
8:00 AM,44.8,41.2,87,30.32,-9999.0,SW,3.5,-,N/A,,Unknown,220,2012-10-25 15:00:00
9:00 AM,45.1,41.4,87,30.33,-9999.0,SSW,3.5,-,N/A,,Unknown,200,2012-10-25 16:00:00
10:00 AM,46.0,41.5,84,30.36,-9999.0,SW,3.5,-,N/A,,Unknown,230,2012-10-25 17:00:00
11:00 AM,47,42,76,30.38,,ESE,6.9,,,,,120,2012-10-25 18:00:00
11:00 AM,46.6,41.7,83,30.38,-9999.0,ESE,6.9,-,N/A,,Unknown,120,2012-10-25 18:00:00
12:00 PM,47.3,40.6,78,30.39,-9999.0,ESE,11.5,-,N/A,,Unknown,120,2012-10-25 19:00:00
2:00 PM,47.7,42.8,83,30.37,-9999.0,ESE,18.4,-,N/A,,Unknown,110,2012-10-25 21:00:00
3:00 PM,47.7,42.8,83,30.38,-9999.0,ESE,17.3,-,N/A,,Unknown,110,2012-10-25 22:00:00
4:00 PM,47.7,42.8,83,30.37,-9999.0,ESE,18.4,-,N/A,,Unknown,110,2012-10-25 23:00:00
5:00 PM,48,41,70,30.37,,ESE,17.3,,,,,120,2012-10-26 00:00:00
5:00 PM,47.7,41.4,79,30.37,-9999.0,ESE,17.3,-,N/A,,Unknown,120,2012-10-26 00:00:00
6:00 PM,47.7,42.1,81,30.36,-9999.0,ESE,16.1,-,N/A,,Unknown,120,2012-10-26 01:00:00
7:00 PM,47.3,41.7,81,30.35,-9999.0,ESE,16.1,-,N/A,,Unknown,120,2012-10-26 02:00:00
9:00 PM,47.5,43.0,84,30.33,-9999.0,ESE,18.4,-,N/A,,Unknown,120,2012-10-26 04:00:00
10:00 PM,47.3,43.5,87,30.31,-9999.0,ESE,18.4,-,N/A,,Unknown,120,2012-10-26 05:00:00
11:00 PM,47,44,83,30.31,,ESE,15.0,,,,,120,2012-10-26 06:00:00
11:00 PM,46.9,43.5,88,30.31,-9999.0,ESE,15.0,-,0.02,,Unknown,120,2012-10-26 06:00:00